When you browse on this site, cookies collect data to enhance your experience and personalize the content and advertising you see.
Visit our Privacy Policy to learn more. By continuing to use the site, you agree to this use of cookies and data.
  • en Suisse
  • Liste des pays
  • À 7 jours
  • Température de l'eau
  • Carte satellitaire
  • Carte météo
  • Widgets météo
  • user-avatar
    Se connecter

    Météo par heure à Barisal

    Ce jour, 25 Avril, Jeudi

    Heure Température Précipitation Vent Pression Humidité
    00:00 +31°C° 0 mm 2 m/s 755 mmHg 52%
    01:00 +31°C° 0 mm 2 m/s 755 mmHg 53%
    02:00 +31°C° 0 mm 2 m/s 755 mmHg 54%
    03:00 +30°C° 0 mm 2 m/s 755 mmHg 55%
    04:00 +30°C° 0 mm 2 m/s 755 mmHg 56%
    05:00 +30°C° 0 mm 1 m/s 755 mmHg 57%
    06:00 +30°C° 0 mm 1 m/s 755 mmHg 59%
    07:00 +32°C° 0 mm 1 m/s 756 mmHg 51%
    08:00 +34°C° 0 mm 1 m/s 756 mmHg 44%
    09:00 +36°C° 0 mm 1 m/s 757 mmHg 37%
    10:00 +39°C° 0 mm 1 m/s 756 mmHg 33%
    11:00 +40°C° 0 mm 1 m/s 756 mmHg 30%
    12:00 +42°C° 0 mm 1 m/s 756 mmHg 26%
    13:00 +42°C° 0 mm 1 m/s 755 mmHg 26%
    14:00 +41°C° 0 mm 2 m/s 754 mmHg 26%
    15:00 +41°C° 0 mm 2 m/s 753 mmHg 27%
    16:00 +40°C° 0 mm 3 m/s 753 mmHg 29%
    17:00 +40°C° 0 mm 4 m/s 753 mmHg 32%
    18:00 +38°C° 0 mm 4 m/s 753 mmHg 35%
    19:00 +37°C° 0 mm 4 m/s 753 mmHg 40%
    20:00 +35°C° 0 mm 4 m/s 754 mmHg 44%
    21:00 +34°C° 0 mm 4 m/s 754 mmHg 49%
    22:00 +33°C° 0 mm 4 m/s 754 mmHg 54%
    23:00 +33°C° 0 mm 4 m/s 754 mmHg 59%

    Demain, 26 Avril, Vendredi

    Heure Température Précipitation Vent Pression Humidité
    00:00 +31°C° 0 mm 3 m/s 754 mmHg 63%
    01:00 +31°C° 0 mm 3 m/s 754 mmHg 65%
    02:00 +30°C° 0 mm 3 m/s 754 mmHg 66%
    03:00 +30°C° 0 mm 3 m/s 753 mmHg 67%
    04:00 +30°C° 0 mm 2 m/s 753 mmHg 69%
    05:00 +30°C° 0 mm 2 m/s 754 mmHg 71%
    06:00 +29°C° 0 mm 2 m/s 754 mmHg 72%
    07:00 +32°C° 0 mm 2 m/s 754 mmHg 62%
    08:00 +35°C° 0 mm 2 m/s 755 mmHg 52%
    09:00 +37°C° 0 mm 2 m/s 755 mmHg 42%
    10:00 +39°C° 0 mm 2 m/s 755 mmHg 37%
    11:00 +40°C° 0 mm 2 m/s 755 mmHg 31%
    12:00 +43°C° 0 mm 3 m/s 755 mmHg 26%
    13:00 +43°C° 0 mm 3 m/s 754 mmHg 26%
    14:00 +43°C° 0 mm 4 m/s 753 mmHg 25%
    15:00 +43°C° 0 mm 5 m/s 752 mmHg 25%
    16:00 +42°C° 0 mm 5 m/s 752 mmHg 27%
    17:00 +40°C° 0 mm 5 m/s 752 mmHg 30%
    18:00 +39°C° 0 mm 5 m/s 752 mmHg 32%
    19:00 +36°C° 0 mm 5 m/s 753 mmHg 41%
    20:00 +35°C° 0 mm 5 m/s 754 mmHg 51%
    21:00 +33°C° 0 mm 5 m/s 754 mmHg 61%
    22:00 +33°C° 0 mm 4 m/s 754 mmHg 63%
    23:00 +32°C° 0 mm 4 m/s 754 mmHg 66%

    Après-demain, 27 Avril, Samedi

    Heure Température Précipitation Vent Pression Humidité
    00:00 +31°C° 0 mm 3 m/s 754 mmHg 69%
    01:00 +31°C° 0 mm 3 m/s 754 mmHg 71%
    02:00 +30°C° 0 mm 3 m/s 753 mmHg 73%
    03:00 +30°C° 0 mm 4 m/s 753 mmHg 75%
    04:00 +30°C° 0 mm 3 m/s 753 mmHg 76%
    05:00 +30°C° 0 mm 3 m/s 754 mmHg 78%
    06:00 +30°C° 0 mm 2 m/s 754 mmHg 80%
    07:00 +33°C° 0 mm 3 m/s 754 mmHg 68%
    08:00 +35°C° 0 mm 3 m/s 755 mmHg 56%
    09:00 +37°C° 0 mm 3 m/s 755 mmHg 44%
    10:00 +40°C° 0 mm 4 m/s 755 mmHg 39%
    11:00 +41°C° 0 mm 5 m/s 755 mmHg 34%
    12:00 +43°C° 0 mm 5 m/s 754 mmHg 30%
    13:00 +42°C° 0 mm 6 m/s 754 mmHg 31%
    14:00 +42°C° 0 mm 6 m/s 753 mmHg 33%
    15:00 +41°C° 0 mm 7 m/s 752 mmHg 35%
    16:00 +40°C° 0 mm 7 m/s 752 mmHg 39%
    17:00 +38°C° 0 mm 6 m/s 752 mmHg 43%
    18:00 +36°C° 0 mm 6 m/s 752 mmHg 48%
    19:00 +35°C° 0 mm 6 m/s 752 mmHg 54%
    20:00 +34°C° 0 mm 5 m/s 753 mmHg 60%
    21:00 +33°C° 0 mm 4 m/s 753 mmHg 66%
    22:00 +32°C° 0 mm 5 m/s 753 mmHg 69%
    23:00 +32°C° 0 mm 5 m/s 753 mmHg 72%

    28 Avril, Dimanche

    Heure Température Précipitation Vent Pression Humidité
    00:00 +32°C° 0 mm 5 m/s 753 mmHg 75%
    01:00 +32°C° 0 mm 5 m/s 753 mmHg 76%
    02:00 +32°C° 0 mm 5 m/s 753 mmHg 77%
    03:00 +30°C° 0 mm 5 m/s 753 mmHg 77%
    04:00 +30°C° 0 mm 4 m/s 753 mmHg 78%
    05:00 +30°C° 0 mm 4 m/s 754 mmHg 78%
    06:00 +30°C° 0 mm 3 m/s 754 mmHg 79%
    07:00 +33°C° 0 mm 4 m/s 754 mmHg 71%
    08:00 +35°C° 0 mm 5 m/s 755 mmHg 63%
    09:00 +36°C° 0 mm 6 m/s 755 mmHg 55%
    10:00 +38°C° 0 mm 7 m/s 755 mmHg 51%
    11:00 +40°C° 0 mm 7 m/s 755 mmHg 47%
    12:00 +41°C° 0 mm 7 m/s 754 mmHg 43%
    13:00 +40°C° 0 mm 7 m/s 754 mmHg 44%
    14:00 +40°C° 0 mm 8 m/s 753 mmHg 44%
    15:00 +40°C° 0 mm 8 m/s 752 mmHg 45%
    16:00 +39°C° 0 mm 7 m/s 752 mmHg 51%
    17:00 +36°C° 0 mm 7 m/s 752 mmHg 57%
    18:00 +35°C° 0 mm 7 m/s 752 mmHg 63%
    19:00 +34°C° 0 mm 7 m/s 753 mmHg 66%
    20:00 +34°C° 0 mm 7 m/s 753 mmHg 69%
    21:00 +33°C° 0 mm 7 m/s 754 mmHg 73%
    22:00 +33°C° 0 mm 6 m/s 754 mmHg 74%
    23:00 +33°C° 0 mm 6 m/s 754 mmHg 75%

    29 Avril, Lundi

    Heure Température Précipitation Vent Pression Humidité
    00:00 +32°C° 0 mm 6 m/s 753 mmHg 76%
    01:00 +32°C° 0 mm 6 m/s 753 mmHg 76%
    02:00 +32°C° 0 mm 6 m/s 753 mmHg 76%
    03:00 +32°C° 0 mm 6 m/s 753 mmHg 76%
    04:00 +32°C° 0 mm 5 m/s 753 mmHg 76%
    05:00 +32°C° 0 mm 5 m/s 754 mmHg 77%
    06:00 +32°C° 0 mm 4 m/s 754 mmHg 77%
    07:00 +33°C° 0 mm 5 m/s 755 mmHg 72%
    08:00 +34°C° 0 mm 6 m/s 755 mmHg 66%
    09:00 +36°C° 0 mm 7 m/s 756 mmHg 60%
    10:00 +38°C° 0 mm 7 m/s 755 mmHg 55%
    11:00 +39°C° 0 mm 8 m/s 755 mmHg 50%
    12:00 +41°C° 0 mm 8 m/s 754 mmHg 46%
    13:00 +40°C° 0 mm 8 m/s 754 mmHg 46%
    14:00 +40°C° 0 mm 8 m/s 753 mmHg 47%
    15:00 +40°C° 0 mm 8 m/s 752 mmHg 47%
    16:00 +38°C° 0 mm 8 m/s 752 mmHg 53%
    17:00 +36°C° 0 mm 7 m/s 752 mmHg 58%
    18:00 +35°C° 0 mm 7 m/s 752 mmHg 64%
    19:00 +34°C° 0 mm 7 m/s 752 mmHg 67%
    20:00 +33°C° 0 mm 7 m/s 753 mmHg 70%
    21:00 +33°C° 0 mm 7 m/s 753 mmHg 73%
    22:00 +33°C° 0 mm 7 m/s 753 mmHg 74%
    23:00 +32°C° 0 mm 7 m/s 753 mmHg 75%

    30 Avril, Mardi

    Heure Température Précipitation Vent Pression Humidité
    00:00 +32°C° 0 mm 7 m/s 753 mmHg 76%
    01:00 +32°C° 0 mm 6 m/s 753 mmHg 76%
    02:00 +32°C° 0 mm 6 m/s 753 mmHg 76%
    03:00 +32°C° 0 mm 6 m/s 753 mmHg 77%
    04:00 +32°C° 0 mm 6 m/s 753 mmHg 76%
    05:00 +32°C° 0 mm 5 m/s 753 mmHg 76%
    06:00 +32°C° 0 mm 5 m/s 754 mmHg 75%
    07:00 +34°C° 0 mm 5 m/s 754 mmHg 70%
    08:00 +35°C° 0 mm 6 m/s 754 mmHg 64%
    09:00 +36°C° 0 mm 6 m/s 755 mmHg 58%
    10:00 +38°C° 0 mm 7 m/s 754 mmHg 55%
    11:00 +39°C° 0 mm 7 m/s 754 mmHg 51%
    12:00 +40°C° 0 mm 8 m/s 753 mmHg 47%
    13:00 +40°C° 0 mm 8 m/s 753 mmHg 47%
    14:00 +40°C° 0 mm 8 m/s 752 mmHg 47%
    15:00 +40°C° 0 mm 9 m/s 751 mmHg 48%
    16:00 +38°C° 0 mm 8 m/s 751 mmHg 53%
    17:00 +37°C° 0 mm 8 m/s 752 mmHg 58%
    18:00 +35°C° 0 mm 7 m/s 752 mmHg 63%
    19:00 +34°C° 0 mm 7 m/s 752 mmHg 67%
    20:00 +33°C° 0 mm 8 m/s 752 mmHg 71%
    21:00 +33°C° 0 mm 8 m/s 753 mmHg 75%
    22:00 +33°C° 0 mm 7 m/s 753 mmHg 76%
    23:00 +32°C° 0 mm 7 m/s 753 mmHg 76%
    Voir plus